Location: Hlohovi?ky
(49.8934°N, 13.6739°E)
Time: 01:04:54
(UTC+00:00)

Meteor 1-10 Rocket - Pass Details

Date: 19 May 2025
Orbit: 833 x 910 km, 81.3° (Epoch: 23 June)

Event Time Altitude Azimuth Distance (km) Brightness Sun altitude
Exits shadow 21:54:29 24° 201° (SSW) 1,802 5.5 -18.6°
Maximum altitude 21:58:14 75° 283° (WNW) 937 4.4 -18.7°
Drops below altitude 10° 22:04:06 10° 9° (N) 2,565 7.7 -19.0°
Sets 22:06:34 0° 12° (NNE) 3,497 8.6 -19.1°
